Tracking 28096 objects as of 28-Sep-2023
HD Live streaming from Space Station
objects crossing your sky now

FLOCK 4X 7

Track FLOCK 4X 7 now!
10-day predictions


NORAD ID: 51065
Int'l Code: 2022-002CK
Perigee: 475.3 km
Apogee: 483.3 km
Inclination: 97.4 °
Period: 94.0 minutes
Semi major axis: 6850 km
RCS: Unknown
Launch date: January 13, 2022
Source: United States (US)
Launch site: AIR FORCE EASTERN TEST RANGE (AFETR)
Your satellite tracking list
Your tracking list is empty




NASA's NSSDC Master Catalog

Two Line Element Set (TLE):
1 51065U 22002CK  23270.15472116  .00024447  00000-0  81129-3 0  9999
2 51065  97.4294 338.6212 0005811 230.9644 129.1081 15.31215664 94427
Source of the keplerian elements: AFSPC